Location: Unspecified
(0.0000°N, 0.0000°E)
Time: 13:09:37
(UTC+00:00)

deb OV3-4 - Pass Details

Date: 17 June 2025
Orbit: 581 x 4212 km, 40.6° (Epoch: 19 July)

Event Time Altitude Azimuth Distance (km) Brightness Sun altitude
Rises 18:35:29 0° 327° (NNW) 7,685 ? -7.9°
Reaches altitude 10° 18:41:41 10° 337° (NNW) 7,025 ? -9.3°
Maximum altitude 19:03:13 33° 35° (NE) 5,597 ? -14.2°
Enters shadow 19:20:15 14° 88° (E) 6,194 ? -18.1°
